This is the latest recevied weather packets stored in our database for station/object N9BID. If no packets are shown the sender has not sent any weather packets the latest 10 day(s).
| Time | Temp. | Humidity | Pressure | Rain* | Wind** | Luminosity | Snow |
|---|---|---|---|---|---|---|---|
| 1777907967 | 17.78° C | 53% | 987.7 hPa | 0 mm | - | 414 W/m² | - |
| 1777907662 | 17.78° C | 51% | 987.9 hPa | 0 mm | - | 574 W/m² | - |
| 1777907358 | 17.78° C | 52% | 987.6 hPa | 0 mm | - | 345 W/m² | - |
| 1777907055 | 17.78° C | 53% | 987.6 hPa | 0 mm | - | 513 W/m² | - |
| 1777906752 | 17.78° C | 52% | 987.6 hPa | 0 mm | - | 491 W/m² | - |
| 1777906449 | 18.33° C | 51% | 987.4 hPa | 0 mm | - | 554 W/m² | - |
| 1777906146 | 17.78° C | 51% | 987.6 hPa | 0 mm | - | 542 W/m² | - |
| 1777905842 | 17.78° C | 52% | 987.7 hPa | 0 mm | - | 507 W/m² | - |
| 1777905539 | 17.78° C | 51% | 987.8 hPa | 0 mm | - | 543 W/m² | - |
| 1777905235 | 17.78° C | 50% | 987.6 hPa | 0 mm | - | 487 W/m² | - |
| 1777904933 | 17.78° C | 50% | 987.7 hPa | 0 mm | - | 429 W/m² | - |
| 1777904630 | 17.78° C | 51% | 987.7 hPa | 0 mm | - | 432 W/m² | - |
| 1777904327 | 17.78° C | 50% | 987.8 hPa | 0 mm | - | 421 W/m² | - |
| 1777904024 | 17.78° C | 51% | 987.7 hPa | 0 mm | - | 393 W/m² | - |
| 1777903721 | 17.22° C | 50% | 987.6 hPa | 0 mm | - | 243 W/m² | - |
| 1777903417 | 16.11° C | 54% | 987.5 hPa | 0 mm | - | 339 W/m² | - |
| 1777903114 | 15.56° C | 55% | 987.7 hPa | 0 mm | - | 217 W/m² | - |
| 1777902810 | 15.56° C | 56% | 987.8 hPa | 0 mm | - | 285 W/m² | - |
| 1777902508 | 15° C | 59% | 987.8 hPa | 0 mm | - | 292 W/m² | - |
| 1777902204 | 14.44° C | 57% | 988.1 hPa | 0 mm | - | 269 W/m² | - |
| 1777901902 | 14.44° C | 57% | 987.7 hPa | 0 mm | - | 301 W/m² | - |
| 1777901600 | 13.89° C | 56% | 987.8 hPa | 0 mm | - | 193 W/m² | - |
| 1777901297 | 13.89° C | 58% | 987.7 hPa | 0 mm | - | 197 W/m² | - |
| 1777900995 | 13.89° C | 57% | 987.7 hPa | 0 mm | - | 212 W/m² | - |
| 1777900692 | 13.89° C | 58% | 987.6 hPa | 0 mm | - | 188 W/m² | - |
* Rain latest hour (hover to see other rain measurements)
** Current wind speed in m/s (hover to see current wind gust speed)